TJS-20

Last updated on Mon Sep 07 2026 00:03:03 GMT+0000 (Coordinated Universal Time)

1 66142U 25238A 26249.65636465 .00000009 00000+0 00000+0 0 9990 2 66142 5.2944 299.2621 0003607 235.3307 109.8727 1.00273916 3146
UTC large
Height (km)
Speed (km/s)
/
Latitude / Longitude
Inclination (degrees)
Orbital Period (minutes)
Azimuth
Elevation
Range (km)
Doppler Factor

Next 0 passes for location: London (51.5072 / 0.1276)

No passes found over London.
TJS-20